Location: Nairn
(57.5833°N, 3.8667°W)
Time: 17:56:40
(UTC+00:00)

Cosmos 1536 Rocket - Pass Details

Date: 07 August 2020
Orbit: 605 x 632 km, 82.5° (Epoch: 23 September)

Event Time Altitude Azimuth Distance (km) Brightness Sun altitude
Rises 01:39:14 0° 345° (NNW) 2,892 8.0 -14.3°
Reaches altitude 10° 01:41:29 10° 342° (NNW) 1,979 6.9 -14.2°
Maximum altitude 01:45:48 61° 263° (W) 693 3.6 -14.0°
Enters shadow 01:48:28 22° 188° (S) 1,334 4.7 -13.9°
